Tracking 29892 objects as of 21-Nov-2024
HD Live streaming from Space Station
objects crossing your sky now

STARLINK-31474

Track STARLINK-31474 now!
10-day predictions
STARLINK-31474 is classified as:


NORAD ID: 59304
Int'l Code: 2024-056J
Perigee: 451.0 km
Apogee: 451.6 km
Inclination: 43.0 °
Period: 93.5 minutes
Semi major axis: 6822 km
RCS: Unknown
Launch date: March 24, 2024
Source: United States (US)
Launch site: AIR FORCE EASTERN TEST RANGE (AFETR)
Your satellite tracking list
Your tracking list is empty




NASA's NSSDC Master Catalog

Two Line Element Set (TLE):
1 59304U 24056J   24325.64122714 -.00001382  00000-0 -25859-4 0  9990
2 59304  43.0018  45.2915 0000470 210.7961 149.2868 15.40668965 38450
Source of the keplerian elements: AFSPC